Вернуться в каталог

THOR ABLESTAR DEB

АктивенLEO
NORAD 416·DEBRIS·🇺🇸 United States

Запущен Jun 29, 1961 с Cape Canaveral Space Force Station

Loading…

Ближайшие Пролёты (ближайшие 24 часа)

TLE

СвежийSource: Space-Track

Эпоха: Sep 9, 2026, 19:53 UTC

1 00416U 61015ER  26252.82861498  .00000196  00000-0  14140-3 0  9996
2 00416  66.4980  58.2425 0069878 117.5677 243.2533 14.14809534343825

Отслеживайте THOR ABLESTAR DEB в реальном времени с AllMySat

Download on the App Store